UAE660 OMDB-VRMM

Flight info

Callsign UAE660
Flight time N/A
Altitude 37000
Route ANVIX L223 TARDI N629 GIDAN P570 KITAL L894 BOLUR/N0477F390 L894 ELBET ELBET1A
Aircraft B77L/H-SDE1E2E3FGHIJ2J3J4J5M1RWXY/LB1D1

Departure

Time 2026-05-06 17:44
Airport Dubai International Airport (OMDB)

Arrival

Time N/A
Airport Velana International Airport (VRMM)
Time Latitude Longitude Altitude Speed Heading
2026-05-06 16:50 25.24259 55.37518 29 ft 0 kts 211°
2026-05-06 17:29 25.24267 55.37523 31 ft 4 kts 211°
2026-05-06 17:29 25.24290 55.37539 31 ft 4 kts 211°
2026-05-06 17:29 25.24309 55.37552 31 ft 3 kts 211°
2026-05-06 17:29 25.24333 55.37561 31 ft 4 kts 172°
2026-05-06 17:30 25.24356 55.37550 31 ft 4 kts 133°
2026-05-06 17:30 25.24370 55.37528 31 ft 4 kts 121°
2026-05-06 17:30 25.24381 55.37509 31 ft 0 kts 121°
2026-05-06 17:34 25.24380 55.37510 31 ft 2 kts 121°
2026-05-06 17:34 25.24366 55.37536 29 ft 5 kts 121°
2026-05-06 17:35 25.24348 55.37567 31 ft 5 kts 121°
2026-05-06 17:35 25.24329 55.37602 30 ft 5 kts 122°
2026-05-06 17:35 25.24308 55.37638 29 ft 6 kts 122°
2026-05-06 17:36 25.24266 55.37714 29 ft 6 kts 121°
2026-05-06 17:36 25.24259 55.37760 27 ft 6 kts 68°
2026-05-06 17:36 25.24293 55.37793 30 ft 7 kts 35°
2026-05-06 17:36 25.24331 55.37822 32 ft 7 kts 34°
2026-05-06 17:37 25.24369 55.37850 27 ft 7 kts 34°
2026-05-06 17:37 25.24407 55.37879 28 ft 7 kts 34°
2026-05-06 17:37 25.24445 55.37908 29 ft 7 kts 34°
2026-05-06 17:37 25.24484 55.37937 29 ft 7 kts 34°
2026-05-06 17:38 25.24523 55.37967 29 ft 8 kts 34°
2026-05-06 17:38 25.24571 55.38003 28 ft 8 kts 34°
2026-05-06 17:38 25.24607 55.38029 28 ft 5 kts 33°
2026-05-06 17:38 25.24635 55.38049 28 ft 3 kts 32°
2026-05-06 17:39 25.24637 55.38050 28 ft 0 kts 32°
2026-05-06 17:42 25.24637 55.38051 28 ft 1 kts 32°
2026-05-06 17:42 25.24668 55.38072 29 ft 7 kts 32°
2026-05-06 17:42 25.24709 55.38099 30 ft 7 kts 31°
2026-05-06 17:42 25.24755 55.38106 30 ft 7 kts 341°
2026-05-06 17:43 25.24785 55.38064 30 ft 8 kts 300°
2026-05-06 17:43 25.24876 55.37898 30 ft 48 kts 301°
2026-05-06 17:43 25.25193 55.37331 31 ft 123 kts 301°
2026-05-06 17:43 25.25768 55.36332 42 ft 180 kts 306°
2026-05-06 17:44 25.26477 55.35206 732 ft 173 kts 306°
2026-05-06 17:44 25.27138 55.34150 1475 ft 168 kts 303°
2026-05-06 17:44 25.27805 55.33030 1954 ft 180 kts 304°
2026-05-06 17:44 25.28521 55.31870 2501 ft 185 kts 303°
2026-05-06 17:45 25.29258 55.30681 3042 ft 189 kts 303°
2026-05-06 17:45 25.30006 55.29474 3637 ft 192 kts 303°
2026-05-06 17:45 25.30611 55.28106 3970 ft 207 kts 276°
2026-05-06 17:45 25.30293 55.26596 3962 ft 206 kts 230°